| time (UTC) | temp F | wind direction | speed knots | gust knots | rain 1hr in | rain 24hr in | rain mn in | humidity % | barometer mb |
| 20260506175521 | 40 | 313 | 1.7 | 5.2 | 0.00 | 0.00 | 0.00 | 55 | |
| 20260506174529 | 41 | 290 | 2.6 | 12.2 | 0.00 | 0.00 | 0.00 | 54 | |
| 20260506173521 | 40 | 313 | 1.7 | 5.2 | 0.00 | 0.00 | 0.00 | 56 | |
| 20260506172550 | 39 | 336 | 0.9 | 7.0 | 0.00 | 0.00 | 0.00 | 57 | |
| 20260506171521 | 39 | 244 | 1.7 | 5.2 | 0.00 | 0.00 | 0.00 | 54 | |
| 20260506170529 | 39 | 264 | 1.7 | 4.3 | 0.00 | 0.00 | 0.00 | 55 | |
| 20260506165521 | 39 | 247 | 1.7 | 6.1 | 0.00 | 0.00 | 0.00 | 56 | |
| 20260506164530 | 38 | 264 | 1.7 | 6.1 | 0.00 | 0.00 | 0.00 | 57 | |
| 20260506163521 | 38 | 316 | 1.7 | 4.3 | 0.00 | 0.00 | 0.00 | 56 | |
| 20260506162529 | 39 | 311 | 1.7 | 5.2 | 0.00 | 0.00 | 0.00 | 57 | |
| 20260506161521 | 38 | 281 | 1.7 | 5.2 | 0.00 | 0.00 | 0.00 | 58 | |
| 20260506160529 | 38 | 297 | 0.9 | 5.2 | 0.00 | 0.00 | 0.00 | 61 | |
| 20260506155522 | 37 | 245 | 0.9 | 2.6 | 0.00 | 0.00 | 0.00 | 62 | |
| 20260506154530 | 37 | 247 | 0.9 | 4.3 | 0.00 | 0.00 | 0.00 | 64 | |
| 20260506153522 | 37 | 244 | 1.7 | 5.2 | 0.00 | 0.00 | 0.00 | 64 | |
| 20260506152530 | 36 | 249 | 2.6 | 7.0 | 0.00 | 0.00 | 0.00 | 65 | |
| 20260506151521 | 36 | 266 | 1.7 | 6.1 | 0.00 | 0.00 | 0.00 | 66 | |
| 20260506150531 | 36 | 233 | 1.7 | 5.2 | 0.00 | 0.00 | 0.00 | 66 | |
| 20260506145521 | 37 | 318 | 2.6 | 7.8 | 0.00 | 0.00 | 0.00 | 66 | |
| 20260506144529 | 37 | 267 | 2.6 | 7.0 | 0.00 | 0.00 | 0.00 | 67 | |
| 20260506143522 | 36 | 235 | 1.7 | 5.2 | 0.00 | 0.00 | 0.00 | 69 | |
| 20260506142530 | 36 | 252 | 1.7 | 5.2 | 0.00 | 0.00 | 0.00 | 69 | |
| 20260506141522 | 36 | 264 | 1.7 | 4.3 | 0.00 | 0.00 | 0.00 | 70 | |
| 20260506140530 | 35 | 243 | 0.9 | 4.3 | 0.00 | 0.00 | 0.00 | 71 | |
| 20260506135522 | 35 | 294 | 1.7 | 6.1 | 0.00 | 0.00 | 0.00 | 69 | |
| 20260506134530 | 35 | 334 | 0.9 | 4.3 | 0.00 | 0.00 | 0.00 | 67 | |
| 20260506133535 | 35 | 311 | 1.7 | 5.2 | 0.00 | 0.00 | 0.00 | 65 | |
| 20260506132530 | 35 | 289 | 1.7 | 5.2 | 0.00 | 0.00 | 0.00 | 63 | |
| 20260506131522 | 35 | 333 | 1.7 | 5.2 | 0.00 | 0.00 | 0.00 | 62 | |
| 20260506130530 | 35 | 318 | 0.9 | 4.3 | 0.00 | 0.00 | 0.00 | 61 | |
| 20260506125522 | 35 | 307 | 0.9 | 4.3 | 0.00 | 0.00 | 0.00 | 60 | |
| 20260506124530 | 34 | 322 | 0.9 | 2.6 | 0.00 | 0.00 | 0.00 | 60 | |
| 20260506123522 | 34 | 237 | 0.9 | 1.7 | 0.00 | 0.00 | 0.00 | 61 | |
| 20260506122530 | 34 | 224 | 0.9 | 2.6 | 0.00 | 0.00 | 0.00 | 60 | |
| 20260506121524 | 34 | 239 | 0.9 | 5.2 | 0.00 | 0.00 | 0.00 | 60 | |
| 20260506120530 | 33 | 268 | 0.9 | 6.1 | 0.00 | 0.00 | 0.00 | 61 | |
| 20260506115522 | 33 | 245 | 0.9 | 4.3 | 0.00 | 0.00 | 0.00 | 62 | |
| 20260506114530 | 33 | 273 | 0.9 | 4.3 | 0.00 | 0.00 | 0.00 | 65 | |
| 20260506113522 | 33 | 321 | 0.9 | 6.1 | 0.00 | 0.00 | 0.00 | 66 | |
| 20260506112550 | 33 | 286 | 0.9 | 4.3 | 0.00 | 0.00 | 0.00 | 67 | |
| 20260506111524 | 33 | 303 | 0.9 | 4.3 | 0.00 | 0.00 | 0.00 | 67 | |
| 20260506110530 | 33 | 333 | 1.7 | 6.1 | 0.00 | 0.00 | 0.00 | 67 | |
| 20260506105522 | 33 | 344 | 0.0 | 2.6 | 0.00 | 0.00 | 0.00 | 67 | |
| 20260506104550 | 33 | 256 | 0.0 | 2.6 | 0.00 | 0.00 | 0.00 | 67 | |
| 20260506103542 | 33 | 354 | 0.9 | 2.6 | 0.00 | 0.00 | 0.00 | 66 | |
| 20260506102530 | 33 | 345 | 0.0 | 4.3 | 0.00 | 0.00 | 0.00 | 67 | |
| 20260506101522 | 33 | 281 | 0.0 | 1.7 | 0.00 | 0.00 | 0.00 | 67 | |
| 20260506100530 | 33 | 245 | 0.0 | 2.6 | 0.00 | 0.00 | 0.00 | 67 | |
| 20260506095522 | 32 | 265 | 0.0 | 2.6 | 0.00 | 0.00 | 0.00 | 69 | |
| 20260506094530 | 32 | 251 | 0.0 | 0.9 | 0.00 | 0.00 | 0.00 | 71 | |
| 20260506093523 | 32 | 309 | 0.9 | 1.7 | 0.00 | 0.00 | 0.00 | 71 | |
| 20260506092530 | 32 | 288 | 0.0 | 1.7 | 0.00 | 0.00 | 0.00 | 71 | |
| 20260506091522 | 32 | 0.0 | 0.0 | 0.00 | 0.00 | 0.00 | 72 | ||
| 20260506090531 | 33 | 268 | 0.0 | 0.9 | 0.00 | 0.00 | 0.00 | 71 | |
| 20260506085544 | 33 | 300 | 0.9 | 1.7 | 0.00 | 0.00 | 0.00 | 70 | |
| 20260506084530 | 33 | 274 | 0.0 | 1.7 | 0.00 | 0.00 | 0.00 | 70 | |
| 20260506083522 | 33 | 278 | 0.0 | 0.9 | 0.00 | 0.00 | 0.00 | 70 | |
| 20260506082531 | 33 | 325 | 0.9 | 2.6 | 0.00 | 0.00 | 0.00 | 70 | |
| 20260506081543 | 33 | 267 | 0.9 | 1.7 | 0.00 | 0.00 | 0.00 | 70 | |
| 20260506080531 | 33 | 346 | 0.9 | 1.7 | 0.00 | 0.00 | 0.00 | 70 | |
| 20260506073522 | 33 | 326 | 0.9 | 2.6 | 0.00 | 0.00 | 0.00 | 65 | |
| 20260506072530 | 33 | 315 | 0.9 | 5.2 | 0.00 | 0.00 | 0.00 | 65 | |
| 20260506071522 | 33 | 274 | 0.9 | 1.7 | 0.00 | 0.00 | 0.00 | 65 | |
| 20260506070530 | 34 | 313 | 0.9 | 1.7 | 0.00 | 0.00 | 0.00 | 65 | |
| 20260506061523 | 34 | 316 | 0.9 | 7.0 | 0.00 | 0.00 | 0.00 | 63 | |
| 20260506060531 | 34 | 336 | 0.9 | 7.0 | 0.00 | 0.00 | 0.00 | 63 | |
| 20260506050531 | 34 | 268 | 0.9 | 1.7 | 0.00 | 0.00 | 0.00 | 60 | |
| 20260506044531 | 34 | 333 | 1.7 | 6.1 | 0.00 | 0.00 | 0.00 | 60 | |
| 20260506043523 | 34 | 326 | 1.7 | 6.1 | 0.00 | 0.00 | 0.00 | 60 | |
| 20260506042532 | 35 | 350 | 2.6 | 8.7 | 0.00 | 0.00 | 0.00 | 61 | |
| 20260506041535 | 35 | 11 | 2.6 | 11.3 | 0.00 | 0.00 | 0.00 | 62 | |
| 20260506040531 | 35 | 338 | 0.9 | 5.2 | 0.00 | 0.00 | 0.00 | 63 | |
| 20260506035523 | 35 | 338 | 1.7 | 4.3 | 0.00 | 0.00 | 0.00 | 62 | |
| 20260506034553 | 35 | 345 | 1.7 | 6.1 | 0.00 | 0.00 | 0.00 | 62 | |
| 20260506033523 | 35 | 341 | 1.7 | 4.3 | 0.00 | 0.00 | 0.00 | 61 | |
| 20260506032531 | 35 | 331 | 0.9 | 2.6 | 0.00 | 0.00 | 0.00 | 61 | |
| 20260506031523 | 35 | 327 | 0.9 | 5.2 | 0.00 | 0.00 | 0.00 | 61 | |
| 20260506030551 | 35 | 299 | 0.9 | 2.6 | 0.00 | 0.00 | 0.00 | 61 | |
| 20260506025523 | 35 | 308 | 0.9 | 2.6 | 0.00 | 0.00 | 0.00 | 61 | |
| 20260506024531 | 35 | 312 | 0.9 | 1.7 | 0.00 | 0.00 | 0.00 | 61 | |
| 20260506023523 | 35 | 311 | 1.7 | 6.1 | 0.00 | 0.00 | 0.00 | 60 | |
| 20260506022531 | 35 | 263 | 0.9 | 2.6 | 0.00 | 0.00 | 0.00 | 60 | |
| 20260506021524 | 35 | 242 | 0.9 | 2.6 | 0.00 | 0.00 | 0.00 | 60 | |
| 20260506020551 | 36 | 342 | 0.9 | 2.6 | 0.00 | 0.00 | 0.00 | 61 | |
| 20260506015523 | 36 | 315 | 1.7 | 5.2 | 0.00 | 0.00 | 0.00 | 61 | |
| 20260506014551 | 36 | 321 | 1.7 | 6.1 | 0.00 | 0.00 | 0.00 | 60 | |
| 20260506013523 | 36 | 327 | 0.0 | 2.6 | 0.00 | 0.00 | 0.00 | 59 | |
| 20260506012535 | 36 | 329 | 1.7 | 4.3 | 0.00 | 0.00 | 0.00 | 59 | |
| 20260506011523 | 36 | 313 | 0.9 | 7.8 | 0.00 | 0.00 | 0.00 | 59 | |
| 20260506010531 | 36 | 354 | 1.7 | 7.8 | 0.00 | 0.00 | 0.00 | 58 | |
| 20260506005524 | 36 | 264 | 0.9 | 5.2 | 0.00 | 0.00 | 0.00 | 57 | |
| 20260506004532 | 36 | 313 | 0.9 | 2.6 | 0.00 | 0.00 | 0.00 | 57 | |
| 20260506003523 | 36 | 344 | 0.9 | 6.1 | 0.00 | 0.00 | 0.00 | 57 | |
| 20260506002553 | 37 | 328 | 0.9 | 4.3 | 0.00 | 0.00 | 0.00 | 56 | |
| 20260506001525 | 37 | 322 | 1.7 | 7.0 | 0.00 | 0.00 | 0.00 | 55 | |
| 20260506000531 | 37 | 320 | 1.7 | 6.1 | 0.00 | 0.00 | 0.00 | 55 | |
| 20260505235523 | 37 | 275 | 1.7 | 5.2 | 0.00 | 0.00 | 0.00 | 55 | |
| 20260505234552 | 37 | 349 | 1.7 | 5.2 | 0.00 | 0.00 | 0.00 | 54 | |
| 20260505233544 | 37 | 325 | 2.6 | 7.0 | 0.00 | 0.00 | 0.00 | 54 | |
| 20260505232608 | 37 | 349 | 2.6 | 7.8 | 0.00 | 0.00 | 0.00 | 54 | |
| 20260505231523 | 37 | 324 | 1.7 | 5.2 | 0.00 | 0.00 | 0.00 | 54 | |
| 20260505230532 | 38 | 279 | 0.9 | 5.2 | 0.00 | 0.00 | 0.00 | 55 | |
| 20260505225523 | 38 | 315 | 0.9 | 5.2 | 0.00 | 0.00 | 0.00 | 54 | |
| 20260505224535 | 38 | 20 | 1.7 | 6.1 | 0.00 | 0.00 | 0.00 | 53 | |
| 20260505223524 | 38 | 240 | 0.9 | 4.3 | 0.00 | 0.00 | 0.00 | 52 | |
| 20260505222532 | 39 | 309 | 1.7 | 5.2 | 0.00 | 0.00 | 0.00 | 51 | |
| 20260505221524 | 39 | 280 | 1.7 | 6.1 | 0.00 | 0.00 | 0.00 | 52 | |
| 20260505220532 | 39 | 295 | 1.7 | 5.2 | 0.00 | 0.00 | 0.00 | 52 | |
| 20260505215535 | 39 | 265 | 0.9 | 5.2 | 0.00 | 0.00 | 0.00 | 51 | |
| 20260505214532 | 39 | 325 | 1.7 | 5.2 | 0.00 | 0.00 | 0.00 | 50 | |
| 20260505213555 | 40 | 245 | 1.7 | 5.2 | 0.00 | 0.00 | 0.00 | 49 | |
| 20260505212532 | 40 | 305 | 2.6 | 7.8 | 0.00 | 0.00 | 0.00 | 49 | |
| 20260505211524 | 39 | 245 | 1.7 | 7.0 | 0.00 | 0.00 | 0.00 | 50 | |
| 20260505210535 | 40 | 352 | 3.5 | 7.0 | 0.00 | 0.00 | 0.00 | 48 | |
| 20260505205524 | 40 | 243 | 2.6 | 7.0 | 0.00 | 0.00 | 0.00 | 49 | |
| 20260505204533 | 40 | 310 | 1.7 | 7.0 | 0.00 | 0.00 | 0.00 | 50 | |
| 20260505203624 | 40 | 253 | 1.7 | 5.2 | 0.00 | 0.00 | 0.00 | 51 | |
| 20260505202532 | 40 | 260 | 2.6 | 6.1 | 0.00 | 0.00 | 0.00 | 50 | |
| 20260505201525 | 40 | 304 | 1.7 | 5.2 | 0.00 | 0.00 | 0.00 | 52 | |
| 20260505200533 | 39 | 235 | 1.7 | 7.0 | 0.00 | 0.00 | 0.00 | 51 | |
| 20260505195524 | 39 | 249 | 1.7 | 7.8 | 0.00 | 0.00 | 0.00 | 53 | |
| 20260505194535 | 39 | 255 | 1.7 | 7.0 | 0.00 | 0.00 | 0.00 | 54 | |
| 20260505193524 | 39 | 243 | 1.7 | 5.2 | 0.00 | 0.00 | 0.00 | 54 | |
| 20260505192532 | 39 | 263 | 1.7 | 4.3 | 0.00 | 0.00 | 0.00 | 54 | |
| 20260505191526 | 38 | 248 | 1.7 | 8.7 | 0.00 | 0.00 | 0.00 | 54 | |
| 20260505190532 | 38 | 241 | 1.7 | 7.8 | 0.00 | 0.00 | 0.00 | 53 | |
| 20260505185524 | 39 | 273 | 2.6 | 8.7 | 0.00 | 0.00 | 0.00 | 53 | |
| 20260505184535 | 39 | 276 | 1.7 | 8.7 | 0.00 | 0.00 | 0.00 | 52 | |
| 20260505183524 | 38 | 241 | 1.7 | 6.1 | 0.00 | 0.00 | 0.00 | 54 | |
| 20260505182535 | 38 | 288 | 1.7 | 6.1 | 0.00 | 0.00 | 0.00 | 54 | |
| 20260505181524 | 37 | 249 | 1.7 | 6.1 | 0.00 | 0.00 | 0.00 | 55 | |
| 20260505180535 | 37 | 254 | 1.7 | 6.1 | 0.00 | 0.00 | 0.00 | 56 |